ATLAS 5 CENTAUR DEB, 46657

Orbit data source: Space-Track

ATLAS 5 CENTAUR DEB, 46657 is space debris in HEO originally from a launch on Wed, 17 Oct 2018 UTC launched from the Air Force Eastern Test Range (AFETR). Debris objects in space refer to the collection of defunct objects orbiting the Earth. Examples of debris include non-operational satellites, rocket bodies, and fragments generated from explosions, collisions, or faulty payload assembly.

Loading next visibility...
Identifier
46657, 2018-079CK
Orbit
HEO
Country
Flag of USUS
Related business
Flag of USUnited Launch Alliance/Lockheed Martin (US)
Manufacturer
ULA Decatur
Mission
Spacecraft
Bus & Motor
Unknown
Mass
Unknown
Launch date (UTC)
2018-10-17 (8 years ago)
Launch vehicle
Unknown
Launch site
Air Force Eastern Test Range (AFETR)
Object type
Payload
Rocket body
Debris
Shape & HBR
Unknown shape, 1.1 m
Radar Cross Section
Large (>1 m²)

Expand to show TLE details & history
Last TLE update: 1 week ago

TLE from 1 week ago
0 ATLAS 5 CENTAUR DEB
1 46657U 18079CK  26241.74981735 -.00000143  00000-0  00000+0 0  9990
2 46657  13.0050  13.9071 5059707 357.8342   0.4599  1.69895561 36584
Epoch: 2026-08-29T17:59Z
TLE epoch observation values (Epoch: 2026-08-29T17:59:44.219Z)
Latitude
-0.00005°
Longitude
126.03885°
Altitude
8,266.394 km
Speed
6.403 km/s
True Right ascension
00h 55m 42s
True Declination
0° 00' 00"
Sunlit
Object was in daylight at epoch
Visualization orbit readout
Latitude
Unknown
Longitude
Unknown
Altitude
Unknown
Speed
Unknown
Apparent Right ascension
Unknown
Apparent Declination
Unknown
Sunlit
N/A
Visualization observer readout
Local Sidereal Time
11:03:52
Azimuth
Unknown
Elevation
Unknown
Doppler factor
Unknown
Orbital elements
Apogee altitude
38,303.448 km
Perigee altitude
8,279.527 km
Semi-major axis
29,669.624 km
Eccentricity
0.50597
Inclination
13.005°
RAAN
13.9071°
Arg. of periapsis
357.8342°
True anomaly
1.62519°
Mean anomaly
0.4599°
Eccentric anomaly
0.93087°
Mean motion
0.42469 °/min
Orbital period
847.67 mins
BSTAR
0
Loading maneuver chart data...
Computing Atmospheric mass density...

Documentation

Showing up to 5 results
|